User: anonymous   Login
Location: Fours
(44.3167°N, 6.7000°E)
Time: 18:12:15
(UTC+00:00)
Language:

Timation 2 Rocket - Orbit

View from above orbital plane
View from above orbital plane
View from above satellite
View from above satellite

Ground track
Ground track

The orbit data is extracted from the following two-line orbital elements,

1 04159U 69082AB  22023.91026196 -.00000003  00000-0  48418-4 0  9990
2 04159  69.9626 294.1654 0114605 158.8398 201.7493 13.72478767618282
Epoch (UTC): 23 January 2022 21:50:46
Eccentricity: 0.0114605
inclination: 69.9626°
perigee height: 906 km
apogee height: 1075 km
right ascension of ascending node: 294.1654°
argument of perigee: 158.8398°
revolutions per day: 13.72478767
mean anomaly at epoch: 201.7493°
orbit number at epoch: 61828

The dashed part of the orbit path shows where the satellite is in the earth's shadow,  

DLR